CAPE
0 0 0 0 0 0 0 0 0 0 0 0 0 0 0 0 0 0 0 0 0 0 0 0 0 135 324 626 749 1135 820 864 1078 917 758 765 616 463 111 1 7 6 10 8 15 36 40 10 0
0 0 0 0 0 0 0 0 0 0 0 0 0 0 0 0 0 0 0 0 0 0 0 0 1 267 370 523 653 807 756 648 681 942 767 690 542 374 77 6 5 1 1 0 1 17 10 2 7
0 0 0 0 0 0 0 0 0 0 0 0 0 0 0 0 0 0 0 0 0 1 0 108 257 508 656 715 634 669 817 780 801 536 545 574 464 471 227 59 1 0 0 0 0 0 0 1 41
0 0 0 0 0 0 0 0 0 0 0 0 0 0 0 0 0 0 0 0 0 0 0 45 407 779 711 832 1096 785 586 534 679 482 361 173 303 571 354 223 114 0 0 0 0 0 0 0 27
0 0 0 0 0 0 0 0 0 0 0 0 0 0 0 0 0 0 0 0 0 0 0 0 119 474 390 534 702 559 498 442 354 266 353 229 240 409 228 397 232 25 0 0 0 0 0 0 0
0 0 0 1 0 0 0 0 0 0 0 0 0 0 0 0 0 0 0 0 0 0 0 1 4 10 13 113 204 265 360 348 286 263 234 155 196 201 166 224 273 173 0 0 0 0 0 0 0
0 0 0 0 0 0 0 0 0 0 0 0 0 0 0 0 0 0 0 0 0 0 0 0 2 3 6 10 7 4 5 36 139 134 58 5 5 5 7 52 142 176 147 74 23 0 0 0 0
0 0 0 0 0 0 0 0 0 0 0 0 0 0 0 0 0 0 0 0 0 0 2 2 2 3 4 2 10 7 5 4 1 1 0 0 0 0 0 0 0 0 7 130 220 116 16 7 0
0 0 0 0 0 0 0 0 0 0 0 0 0 0 0 0 0 0 0 0 0 0 0 2 2 2 3 3 4 4 3 1 0 0 0 0 0 0 0 0 0 0 0 0 14 174 56 0 0
0 0 0 0 0 0 0 0 0 0 0 0 0 0 0 0 0 0 0 0 0 0 0 1 1 2 1 3 3 1 0 0 0 0 0 0 0 0 0 0 0 0 0 0 4 80 46 4 0
0 0 0 0 0 0 0 0 0 0 0 0 0 0 0 0 0 0 0 0 0 0 0 0 0 1 1 2 1 1 1 1 0 0 0 0 0 0 0 0 0 0 0 0 0 0 0 0 0
0 0 0 0 0 0 0 0 0 0 0 0 0 0 0 0 0 0 0 0 0 0 0 0 0 0 0 1 1 2 1 1 1 1 0 0 0 0 0 0 0 0 0 0 0 0 0 0 0
0 0 0 0 0 0 0 0 0 0 0 0 0 0 0 0 0 0 0 0 0 0 0 0 0 0 0 0 1 1 1 1 1 1 1 0 0 0 0 0 0 0 0 0 0 0 0 0 0
0 0 0 0 0 0 0 0 0 0 0 0 0 0 0 0 0 0 0 0 0 0 0 0 0 0 0 0 0 1 2 2 1 1 2 1 1 0 0 0 0 0 0 0 0 0 0 0 0
0 0 0 0 0 0 0 0 0 0 0 0 0 0 0 0 0 0 0 0 0 0 0 0 0 0 0 0 0 0 1 1 2 2 2 1 1 1 0 0 0 0 0 0 0 0 0 0 0
0 0 0 0 0 0 0 0 0 0 0 0 0 0 0 0 0 0 0 0 0 0 0 0 0 0 0 0 0 0 0 0 1 2 2 1 1 1 2 2 0 0 0 0 0 0 0 0 0
0 0 0 0 0 0 0 0 0 0 0 0 0 0 0 0 0 0 0 0 0 0 0 0 0 0 0 0 0 0 0 0 0 0 1 1 1 0 1 2 2 1 0 0 0 0 0 0 0
0 0 0 0 0 0 0 0 0 0 0 0 0 0 0 0 0 0 0 0 0 0 0 0 0 0 0 0 0 0 0 0 0 0 0 0 1 0 0 0 0 0 2 0 0 0 0 0 0
0 0 0 0 0 0 0 0 0 0 0 0 0 0 0 0 0 0 0 0 0 0 0 0 0 0 0 0 0 0 0 0 0 0 0 0 0 0 0 0 0 0 0 0 0 0 0 0 0
0 0 0 0 0 0 0 0 0 0 0 0 0 0 0 0 0 0 0 0 0 0 0 0 0 0 0 0 0 0 0 0 0 0 0 0 0 0 0 0 0 0 0 0 0 0 0 0 0
0 0 0 0 0 0 0 0 0 0 0 0 0 0 0 0 0 0 0 0 0 0 0 0 0 0 0 0 0 0 0 0 0 0 0 0 0 0 0 0 0 0 0 0 0 0 0 0 0
0 0 0 0 0 0 0 0 0 0 0 0 0 0 0 0 0 0 0 0 0 0 0 0 0 0 0 0 0 0 0 0 0 0 0 0 0 0 0 0 0 0 0 0 0 0 0 0 0
0 0 0 0 0 0 0 0 0 0 0 0 0 0 0 0 0 0 0 0 0 0 0 0 0 0 0 0 0 0 0 0 0 0 0 0 0 0 0 0 0 0 0 0 0 0 0 0 0
0 0 0 0 0 0 0 0 0 0 0 0 0 0 0 0 0 0 0 0 0 0 0 0 0 0 0 0 0 0 0 0 0 0 0 0 0 0 0 0 0 0 0 0 0 0 0 0 0
0 0 0 0 0 0 0 0 0 0 0 0 0 0 0 0 0 1 0 0 0 0 0 0 0 0 0 0 0 0 0 0 0 0 0 0 0 0 0 0 0 0 0 0 0 0 0 0 0
0 0 0 0 0 0 0 0 0 0 0 0 1 0 0 0 0 0 0 0 0 0 0 0 0 0 0 0 0 0 0 0 0 0 0 0 0 0 0 0 0 0 0 0 0 0 0 0 0
0 0 0 0 0 0 0 0 0 0 0 0 0 0 0 1 0 0 1 0 0 0 0 0 0 0 0 0 0 0 0 0 0 0 0 0 0 0 0 0 0 0 0 0 0 0 0 0 0
0 0 0 0 0 0 0 0 0 0 0 0 0 0 0 0 0 1 0 0 0 0 0 0 0 0 0 0 0 0 0 0 0 0 0 0 0 0 0 0 0 0 0 0 0 0 0 0 0
0 0 0 0 0 0 0 0 0 0 0 0 0 0 0 0 0 0 5 0 0 0 0 0 0 0 0 0 0 0 0 0 0 0 0 0 0 0 0 0 0 0 0 0 0 0 0 0 0
0 0 0 0 0 0 0 0 0 0 0 0 0 0 0 0 0 0 0 0 0 0 0 0 0 0 0 0 0 0 0 0 0 0 0 0 0 0 0 0 0 0 0 0 0 0 0 0 0
CIN
0 0 0 0 0 0 0 0 0 0 0 0 0 0 0 0 0 0 0 0 0 0 0 0 0 -24 0 0 0 0 0 0 0 0 0 -1 0 0 0 0 0 0 0 0 0 0 0 -4 0
0 0 0 0 0 0 -1 0 0 0 0 0 0 0 0 0 0 0 0 0 0 0 0 0 -23 -5 0 -1 0 -2 0 0 0 0 0 0 0 -6 0 0 0 0 0 0 0 0 -2 -8 -14
0 0 0 0 0 0 0 0 0 0 0 0 0 0 0 0 0 0 0 0 0 0 0 -57 -12 0 0 0 -1 -1 0 0 0 0 0 0 0 -1 -42 -1 0 0 0 0 0 0 0 -5 -1
0 0 0 0 0 0 0 0 0 0 0 0 0 0 0 0 0 0 0 0 0 0 0 -120 -9 0 0 0 0 0 0 -5 -2 -20 -17 -72 -17 0 -3 -51 0 0 0 0 0 0 0 0 -7
0 0 0 0 0 0 0 0 0 0 0 0 0 0 0 0 0 0 0 0 0 0 0 0 -23 -5 -10 0 0 0 0 -3 -33 -19 -42 -46 -22 -3 -32 -3 0 0 0 0 0 0 0 0 0
0 0 0 0 0 0 0 0 0 0 0 0 0 0 0 0 0 0 0 0 0 0 0 0 0 0 -52 -53 -18 -3 -13 -14 0 0 0 0 -41 0 0 0 -16 0 0 0 0 0 0 0 0
0 0 0 0 0 0 0 0 0 0 0 0 0 0 0 0 0 0 0 0 0 0 0 0 0 0 0 0 0 0 0 -16 -30 -18 -34 -13 -15 -2 -5 0 0 0 0 0 -2 0 0 0 0
0 0 0 0 0 0 0 0 0 0 0 0 0 0 0 0 0 0 0 0 0 0 0 0 0 0 0 0 0 0 0 0 0 0 0 0 0 0 0 0 0 0 0 -1 0 -6 -14 -21 0
0 0 0 0 0 0 0 0 0 0 0 0 0 0 0 0 0 0 0 0 0 0 0 0 0 0 0 0 0 0 0 0 0 0 0 0 0 0 0 0 0 0 0 0 -5 -1 -22 0 0
0 0 0 0 0 0 0 0 0 0 0 0 0 0 0 0 0 0 0 0 0 0 0 0 0 0 0 0 0 0 0 0 0 0 0 0 0 0 0 0 0 0 0 0 -1 -3 -9 -20 0
0 0 0 0 0 0 0 0 0 0 0 0 0 0 0 0 0 0 0 0 0 0 0 0 0 0 0 0 0 0 0 0 0 0 0 0 0 0 0 0 0 0 0 0 0 0 0 0 -5
0 0 0 0 0 0 0 0 0 0 0 0 0 0 0 0 0 0 0 0 0 0 0 0 0 0 0 0 0 0 0 0 0 0 0 0 0 0 0 0 0 0 0 0 0 0 0 0 0
0 0 0 0 0 0 0 0 0 0 0 0 0 0 0 0 0 0 0 0 0 0 0 0 0 0 0 0 0 0 0 0 0 0 0 0 0 0 0 0 0 0 0 0 0 0 0 0 0
0 0 0 0 0 0 0 0 0 0 0 0 0 0 0 0 0 0 0 0 0 0 0 0 0 0 0 0 0 0 0 0 0 0 0 0 0 0 0 0 0 0 0 0 0 0 0 0 0
0 0 0 0 0 0 0 0 0 0 0 0 0 0 0 0 0 0 0 0 0 0 0 0 0 0 0 0 0 0 0 0 0 0 0 0 0 0 0 0 0 0 0 0 0 0 0 0 0
0 0 0 0 0 0 0 0 0 0 0 0 0 0 0 0 0 0 0 0 0 0 0 0 0 0 0 0 0 0 0 0 0 0 0 0 0 0 0 0 0 0 0 0 0 0 0 0 0
0 0 0 0 0 0 0 0 0 0 0 0 0 0 0 0 0 0 0 0 0 0 0 0 0 0 0 0 0 0 0 0 0 0 0 0 0 0 0 0 0 0 0 0 0 0 0 0 0
0 0 0 0 0 0 0 0 0 0 0 0 0 0 0 0 0 0 0 0 0 0 0 0 0 0 0 0 0 0 0 0 0 0 0 0 0 0 0 0 0 0 0 0 0 0 0 0 0
0 0 0 0 0 0 0 0 0 0 0 0 0 0 0 0 0 0 0 0 0 0 0 0 0 0 0 0 0 0 0 0 0 0 0 0 0 0 0 0 0 0 0 0 0 0 0 0 0
0 0 0 0 0 0 0 0 0 0 0 0 0 0 0 0 0 0 0 0 0 0 0 0 0 0 0 0 0 0 0 0 0 0 0 0 0 0 0 0 0 0 0 0 0 0 0 0 0
0 0 0 0 0 0 0 0 0 0 0 0 0 0 0 0 0 0 0 0 0 0 0 0 0 0 0 0 0 0 0 0 0 0 0 0 0 0 0 0 0 0 0 0 0 0 0 0 0
0 0 0 0 0 0 0 0 0 0 0 0 0 0 0 0 0 0 0 0 0 0 0 0 0 0 0 0 0 0 0 0 0 0 0 0 0 0 0 0 0 0 0 0 0 0 0 0 0
0 0 0 0 0 0 0 0 0 0 0 0 0 0 0 0 0 0 0 0 0 0 0 0 0 0 0 0 0 0 0 0 0 0 0 0 0 0 0 0 0 0 0 0 0 0 0 0 0
0 0 0 0 0 0 0 0 0 0 0 0 0 0 0 0 0 0 0 0 0 0 0 0 0 0 0 0 0 0 0 0 0 0 0 0 0 0 0 0 0 0 0 0 0 0 0 0 0
0 0 0 0 0 0 0 0 0 0 0 0 0 0 0 0 0 0 0 0 0 0 0 0 0 0 0 0 0 0 0 0 0 0 0 0 0 0 0 0 0 0 0 0 0 0 0 0 0
0 0 0 0 0 0 0 0 0 0 0 0 0 0 0 -1 0 0 0 0 0 0 0 0 0 0 0 0 0 0 0 0 0 0 0 0 0 0 0 0 0 0 0 0 0 0 0 0 0
0 0 0 0 0 0 0 0 0 0 0 0 0 0 0 0 0 0 0 0 0 0 0 0 0 0 0 0 0 0 0 0 0 0 0 0 0 0 0 0 0 0 0 0 0 0 0 0 0
0 0 0 0 0 0 0 0 0 0 0 0 0 0 0 0 0 0 0 0 0 0 0 0 0 0 0 0 0 0 0 0 0 0 0 0 0 0 0 0 0 0 0 0 0 0 0 0 0
0 0 0 0 0 0 0 0 0 0 0 0 0 0 0 0 0 0 0 0 0 0 0 0 0 0 0 0 0 0 0 0 0 0 0 0 0 0 0 0 0 0 0 0 0 0 0 0 0
0 0 0 0 0 0 0 0 0 0 0 0 0 0 0 0 0 0 0 0 0 0 0 0 0 0 0 0 0 0 0 0 0 0 0 0 0 0 0 0 0 0 0 0 0 0 0 0 0
Wind_Speed
3 4 3 5 2 3 4 6 2 4 3 4 3 4 2 2 2 4 4 1 1 2 2 6 8 4 12 14 14 14 13 12 12 16 17 16 16 16 16 15 15 14 13 14 14 14 13 14 12
2 2 5 3 3 5 5 4 8 11 1 5 6 4 6 3 2 2 3 1 2 2 3 5 8 7 13 14 14 14 14 13 12 14 15 16 14 15 16 15 15 14 13 13 12 12 13 12 11
2 3 4 4 4 9 5 8 21 7 6 2 3 4 2 4 1 6 0 4 3 3 3 4 11 11 14 14 14 14 13 13 14 13 13 13 14 15 17 16 15 14 13 12 12 12 12 13 13
2 2 2 3 7 5 6 5 5 5 4 6 3 2 1 2 1 4 5 7 5 10 8 13 8 12 12 14 14 13 13 13 16 16 11 11 11 13 16 15 14 12 12 13 12 12 12 12 13
3 2 2 5 7 4 7 5 1 1 2 4 5 5 2 2 4 6 8 6 8 9 10 15 16 9 9 13 13 13 14 15 16 16 16 14 12 12 14 14 13 12 12 12 12 11 11 12 13
3 2 3 21 7 5 8 7 2 3 4 2 4 7 4 1 4 5 7 8 8 9 9 11 20 21 23 17 9 10 12 15 14 16 17 17 18 14 12 12 12 11 11 11 11 9 9 11 12
6 4 8 3 7 8 7 5 5 7 3 7 5 8 1 2 5 7 8 7 10 9 9 9 11 14 18 20 20 21 21 16 14 16 15 16 16 15 16 14 9 10 10 8 8 8 8 9 10
5 4 4 6 8 6 7 5 4 8 10 2 4 8 7 8 11 9 8 7 11 8 8 7 10 11 9 8 18 18 18 18 18 15 13 14 13 13 12 12 11 11 9 5 5 5 6 8 9
4 2 9 10 8 4 2 6 2 1 2 4 3 3 6 17 13 10 8 4 6 8 8 8 9 10 7 6 8 13 17 18 17 14 14 9 4 5 8 10 10 8 9 6 1 5 5 6 7
5 4 9 6 6 5 6 5 3 3 3 2 1 5 6 14 13 11 8 7 5 5 5 6 8 9 5 5 6 7 9 9 10 10 9 5 5 5 5 8 11 10 8 7 4 3 4 4 2
5 9 3 3 5 4 4 3 2 6 4 6 8 8 5 8 7 8 7 6 7 4 5 7 7 7 6 5 4 3 3 4 4 10 10 7 4 4 3 3 3 4 6 3 4 4 3 2 0
3 7 4 7 2 2 3 2 2 2 3 7 3 13 6 8 7 7 7 6 6 6 6 7 7 7 7 3 4 3 4 5 6 3 10 8 5 5 4 3 4 3 3 4 3 2 3 4 4
5 3 5 8 6 6 2 5 4 1 6 6 11 8 9 8 7 7 6 6 6 7 6 6 5 7 4 6 4 5 6 4 5 6 8 7 6 6 5 4 4 4 3 3 3 2 2 3 4
4 8 10 5 5 4 5 3 4 1 3 7 8 8 7 8 6 6 6 5 6 5 6 5 7 7 7 6 6 5 4 6 3 3 7 7 5 6 6 5 4 4 4 3 2 2 2 2 3
3 3 5 7 7 5 6 2 5 4 3 7 8 7 7 6 7 7 6 6 5 5 5 5 5 6 7 7 4 4 3 5 3 4 10 4 7 6 6 5 6 6 5 5 3 3 2 2 3
3 4 4 3 8 6 9 5 6 14 4 7 7 6 7 6 6 6 6 6 6 5 5 5 6 6 5 6 4 4 3 3 3 4 4 6 6 8 7 5 6 7 6 5 3 3 2 3 3
3 4 5 4 7 4 4 4 8 13 9 8 6 6 6 7 7 6 6 6 5 5 5 6 5 6 5 5 4 4 5 3 3 4 4 7 7 8 3 4 7 7 6 5 4 3 3 2 2
6 4 4 7 6 7 7 5 8 12 13 8 8 7 6 6 5 5 6 5 6 6 6 5 4 5 6 4 3 4 3 3 3 3 4 7 4 5 6 4 4 5 5 5 6 3 4 3 2
4 2 6 2 3 9 4 6 7 7 10 11 10 9 8 7 4 5 5 5 6 5 6 4 5 4 3 3 3 3 3 2 2 2 5 5 6 5 6 5 5 1 2 7 9 3 5 3 4
5 3 4 2 5 8 3 6 5 8 6 5 6 8 8 6 6 5 4 4 4 4 4 4 4 3 1 2 1 2 2 2 2 2 3 3 7 6 6 3 4 6 3 1 5 4 4 2 5
5 8 6 5 4 7 10 3 3 4 4 6 7 5 6 6 6 5 3 2 3 3 3 4 3 3 3 2 2 3 3 2 2 2 2 3 5 7 5 3 1 1 4 4 4 4 6 2 1
5 5 5 9 3 5 2 5 4 3 4 6 7 7 6 6 6 5 5 3 2 1 2 3 4 4 3 3 3 3 1 1 2 2 2 3 4 4 5 4 3 3 2 3 4 6 3 3 2
2 0 3 3 5 3 4 3 0 5 0 3 5 7 6 6 6 7 6 3 2 2 2 4 5 5 4 3 3 1 2 2 2 2 4 4 4 5 4 4 5 3 3 5 4 4 5 4 2
3 4 5 4 3 7 6 5 3 5 5 2 2 5 7 7 8 7 5 3 3 4 4 4 5 5 6 4 4 4 5 4 3 2 2 3 4 3 5 5 3 3 4 3 2 5 4 3 2
5 5 2 2 3 5 3 6 2 1 2 4 2 4 6 6 8 8 7 6 4 5 5 3 5 5 6 6 6 5 5 4 4 2 1 2 2 2 3 4 4 3 4 3 3 4 3 2 2
2 3 4 7 5 4 1 4 3 2 4 2 7 3 7 7 8 9 7 6 5 5 5 4 4 4 5 5 5 4 5 3 3 3 2 3 2 3 5 4 3 4 2 3 3 2 2 3 3
2 4 1 2 2 4 3 5 4 4 5 5 6 8 7 7 7 8 9 7 5 5 4 3 3 3 4 4 3 4 4 5 4 3 3 3 2 2 3 4 3 4 4 4 3 3 4 4 3
1 0 2 1 3 4 2 3 4 5 4 4 4 5 6 6 6 7 7 6 5 4 3 3 2 2 2 3 3 3 3 3 3 3 3 2 2 3 3 3 3 4 4 4 4 3 3 3 2
5 2 3 1 2 3 3 6 5 7 4 5 4 5 3 3 5 6 5 5 4 3 4 3 4 4 4 3 3 3 3 3 2 2 2 1 1 2 2 2 2 3 3 4 3 3 4 4 3
2 1 0 3 4 2 4 5 1 5 5 5 4 3 2 2 3 5 6 6 5 5 4 3 2 2 3 2 2 3 3 3 3 2 1 1 1 0 0 1 2 2 3 3 3 3 3 4 3
Wind_Direction
31 22 68 43 113 67 246 246 282 288 202 189 92 140 207 78 263 216 264 324 268 276 263 275 272 213 171 152 141 134 131 125 119 119 119 123 124 122 120 117 110 105 109 112 113 109 97 82 76
68 77 42 81 175 215 234 222 244 232 229 84 100 113 126 241 73 200 166 223 340 341 260 253 262 218 167 152 143 137 135 130 123 120 118 119 125 128 126 120 113 111 109 110 112 105 91 76 82
129 70 100 153 200 212 217 202 233 237 249 213 105 34 113 171 78 165 315 120 32 12 23 25 213 201 162 152 147 141 138 134 126 116 115 115 119 142 130 125 120 116 111 111 114 106 94 82 89
149 72 46 176 221 251 207 223 212 146 232 239 147 154 73 24 245 178 134 107 59 40 13 45 167 164 159 157 146 144 142 142 126 119 114 118 113 133 129 126 123 120 116 111 113 110 98 82 87
44 74 210 239 231 239 231 252 152 111 253 194 180 185 148 25 83 106 114 82 78 47 7 60 56 146 147 153 145 147 147 137 128 121 108 108 105 125 131 129 129 129 124 116 115 109 99 85 87
119 120 179 230 214 216 257 231 256 241 225 220 128 139 164 13 110 96 87 75 32 64 35 50 53 69 64 73 111 140 145 134 131 125 114 99 83 95 112 128 135 136 131 124 118 111 96 87 90
162 128 216 227 234 224 206 227 214 247 242 241 132 158 167 191 134 110 95 79 60 23 34 39 56 41 50 73 73 70 63 66 101 106 101 101 93 86 83 80 108 145 141 133 127 122 109 94 90
115 128 209 223 208 245 195 256 193 193 261 62 344 189 199 192 144 119 109 87 75 37 37 26 52 48 19 31 73 72 68 59 57 59 59 63 87 91 83 74 76 80 83 118 142 139 123 101 94
134 168 229 221 172 203 234 200 185 32 145 46 350 313 307 127 126 119 117 101 81 67 36 19 51 58 6 22 64 65 60 53 42 37 38 45 38 64 91 84 71 73 69 60 180 176 134 100 88
159 198 218 201 186 202 228 213 228 164 161 236 349 30 99 132 146 148 154 138 116 94 65 53 47 52 20 359 354 53 71 50 37 19 9 29 37 43 53 77 78 72 65 67 84 136 125 94 95
188 231 197 239 226 211 233 243 231 160 216 206 206 154 145 132 131 124 113 121 125 111 74 60 62 56 31 23 9 21 56 89 58 32 7 8 19 32 41 25 44 62 39 33 45 53 46 32 263
220 236 193 223 288 140 209 305 156 232 313 300 228 142 122 123 121 115 108 113 116 96 82 73 72 62 43 61 19 6 43 80 60 71 45 6 9 8 30 39 17 50 47 65 46 47 48 41 41
224 255 221 226 259 265 301 234 204 12 354 39 106 108 117 110 98 84 89 78 94 99 86 81 84 99 74 51 20 21 39 63 58 50 62 32 13 8 352 31 21 7 24 51 52 47 52 46 49
220 212 240 253 224 218 192 195 151 11 86 71 88 92 93 110 106 92 88 93 86 91 84 84 91 83 84 60 50 46 10 50 35 54 61 47 54 26 357 3 22 9 357 13 23 35 41 40 27
253 252 246 222 199 220 138 154 36 328 89 87 83 90 98 95 95 105 112 102 99 82 82 76 75 79 88 99 86 74 49 48 30 52 39 28 62 50 5 349 21 359 347 352 7 15 20 39 26
206 137 205 251 170 236 152 214 1 335 115 83 85 83 87 73 92 98 102 103 98 100 86 65 73 75 83 93 90 87 65 79 64 52 62 36 61 51 44 336 22 352 347 344 8 22 17 29 22
346 202 194 266 190 127 137 135 348 358 92 67 66 93 107 99 84 80 79 93 95 93 93 88 83 85 82 75 89 75 61 48 34 63 56 44 38 59 47 9 25 350 355 341 345 33 16 32 357
209 199 220 197 200 51 82 93 31 26 62 55 44 33 71 80 69 82 88 79 80 83 76 73 76 83 82 79 72 63 80 73 51 44 55 54 29 62 53 29 26 13 12 333 336 21 40 8 9
151 194 204 192 125 90 72 88 33 26 48 44 38 32 28 39 52 72 74 80 84 61 82 69 85 76 86 76 63 49 35 39 62 41 71 70 41 27 54 43 354 36 48 36 284 350 49 15 341
217 215 211 72 52 87 110 76 57 42 51 39 40 36 27 22 30 56 84 75 43 99 94 96 93 82 76 68 28 129 136 71 59 43 80 96 85 34 53 34 17 10 18 78 13 332 56 267 12
210 204 201 169 123 65 133 95 148 77 64 53 49 40 31 16 360 357 336 66 90 112 128 122 110 93 56 58 79 57 57 93 101 47 76 71 83 84 65 35 41 28 46 19 36 13 28 270 283
219 188 208 152 145 185 168 215 201 149 81 37 16 33 22 5 350 333 342 328 169 169 122 101 84 76 74 67 82 92 80 53 44 100 54 35 79 89 91 104 38 38 74 80 31 28 356 287 356
244 93 113 84 147 96 170 88 223 146 101 30 354 19 9 356 343 325 314 290 215 108 97 88 77 52 32 56 109 90 107 74 44 70 88 71 61 35 64 70 54 20 14 56 43 48 12 331 12
324 86 48 73 71 217 184 166 224 179 191 125 348 14 6 348 347 342 324 51 71 78 62 91 79 39 18 60 70 107 118 109 92 40 51 56 55 31 32 47 62 54 33 19 45 65 20 332 322
51 107 113 176 193 215 308 184 189 282 132 127 142 21 5 3 6 17 26 41 65 76 73 61 72 52 26 44 58 80 111 121 125 112 81 49 24 47 34 42 30 29 59 0 35 61 57 330 356
67 157 175 193 183 199 44 199 244 182 103 95 80 59 46 30 20 17 48 53 58 51 49 55 63 62 44 54 44 59 77 91 92 102 101 78 44 15 14 34 30 34 24 59 16 75 47 27 26
204 226 169 128 141 100 123 3 346 119 90 69 65 51 32 35 26 27 30 42 42 42 23 33 57 53 41 54 49 50 70 85 89 87 97 112 101 125 50 36 40 30 27 39 40 38 47 30 20
35 227 147 193 208 206 333 262 218 160 145 100 81 78 51 35 34 42 29 32 39 36 19 32 42 65 330 10 39 63 48 72 87 90 87 95 86 77 65 44 35 37 38 34 47 32 37 55 9
352 19 21 360 3 168 148 263 223 168 153 111 86 91 85 47 37 33 54 46 28 40 42 20 17 2 344 355 357 20 11 22 57 97 105 80 78 80 85 62 42 35 35 38 54 42 45 51 34
123 113 130 119 288 44 140 270 255 145 119 98 64 61 84 70 30 39 32 31 41 56 55 37 2 347 281 293 334 328 329 347 2 4 346 176 198 325 18 15 33 33 42 36 38 42 36 42 29